Location: Hurstbourne Priors
(51.2000°N, 1.3667°W)
Time: 19:36:42
(UTC+00:00)

Transit 4A - Pass Details

Date: 24 April 2021
Orbit: 870 x 974 km, 66.8° (Epoch: 09 May)

Event Time Altitude Azimuth Distance (km) Brightness Sun altitude
Rises 06:55:30 0° 321° (NW) 3,527 10.6 18.2°
Reaches altitude 10° 06:58:02 10° 322° (NW) 2,569 9.9 18.6°
Maximum altitude 07:03:59 86° 235° (SW) 887 8.2 19.5°
Drops below altitude 10° 07:09:48 10° 146° (SE) 2,515 10.8 20.4°
Sets 07:12:15 0° 146° (SE) 3,447 11.4 20.8°
